RH
42 40 50 65 35 35 47 53 46 45 44 68 86 72 54 45 45 44 41 43 42 41 44 56 60 62 57 56 50 52 58 71 88 57 60 59 54 56 66 70 50 88 84 70
40 34 45 61 40 44 42 54 59 45 39 72 76 54 56 52 46 49 42 43 40 41 49 51 61 62 54 59 61 50 53 68 80 57 64 67 74 73 63 66 78 84 78 64
41 30 35 55 36 45 42 57 59 58 70 68 61 51 52 55 50 48 44 45 40 42 49 57 66 67 59 57 60 63 58 74 49 53 52 75 84 79 75 67 91 76 86 69
43 32 35 46 37 41 42 63 58 61 48 55 53 48 51 52 50 49 47 47 44 44 53 55 64 72 67 61 63 63 66 67 76 74 69 74 70 68 81 82 70 72 58 74
44 28 35 50 42 34 41 58 55 60 58 48 38 46 52 50 50 50 47 49 48 48 50 47 65 68 67 59 67 67 74 66 73 75 65 74 79 76 77 75 70 73 66 66
46 29 26 34 50 30 44 64 61 45 59 48 40 41 47 50 50 46 47 46 49 48 49 49 55 56 60 59 71 76 78 80 81 66 73 66 52 55 69 74 72 65 75 56
51 35 29 37 54 45 42 62 65 52 44 49 42 39 40 47 46 42 46 46 45 50 52 48 51 58 60 65 72 74 84 79 81 86 67 48 26 42 52 63 60 69 63 59
58 39 31 39 53 61 53 56 60 63 48 47 41 40 48 49 49 55 51 60 62 62 50 56 55 62 57 71 75 72 75 79 82 80 86 60 42 42 47 41 38 45 54 44
69 46 31 29 37 58 62 64 59 61 55 49 38 45 46 53 54 58 65 62 62 60 64 53 48 56 54 79 81 74 80 77 80 90 89 62 29 42 40 31 39 34 36 36
77 54 33 27 33 42 68 74 68 62 65 62 41 49 49 56 61 64 70 65 66 61 66 59 70 49 54 74 85 98 88 88 93 90 94 82 56 47 39 40 36 35 39 42
83 58 35 24 25 33 50 73 75 71 83 76 47 42 51 57 63 63 66 62 75 83 65 61 59 62 56 58 67 85 88 96 93 86 99 79 50 47 38 35 40 38 37 37
91 66 38 24 24 26 41 70 77 78 79 79 68 62 51 50 50 66 79 52 75 75 70 79 68 62 74 53 46 68 63 62 76 78 73 50 47 40 40 39 39 38 39 41
94 71 41 27 25 24 30 60 79 81 89 80 80 78 63 60 52 54 69 78 67 74 69 78 75 64 64 63 64 55 61 58 62 60 44 52 48 38 38 40 40 45 48 53
96 62 42 34 35 36 33 48 85 83 88 91 70 60 60 63 62 60 56 62 67 70 75 75 76 72 57 58 54 56 46 58 58 61 47 47 50 48 51 50 50 54 56 55
68 58 45 42 49 55 55 51 82 93 80 75 88 81 71 68 65 61 64 64 73 80 79 83 79 78 71 76 75 75 54 54 54 50 46 46 49 54 54 56 59 60 64 61
72 58 50 55 63 66 59 89 97 98 86 90 96 82 75 70 71 71 72 70 79 80 76 79 81 71 65 71 82 59 58 61 54 50 50 51 52 60 60 58 59 62 56 57
90 78 59 58 76 83 85 77 83 90 87 82 91 90 80 72 76 84 84 81 87 82 83 88 84 78 78 88 88 59 57 58 59 60 54 57 62 65 63 61 58 57 54 53
96 85 76 60 83 98 94 94 97 84 83 87 98 93 87 73 86 87 90 91 90 88 88 91 87 82 86 93 75 60 59 69 72 70 66 65 61 55 55 55 58 58 57 57
88 66 74 99 90 94 97 97 100 96 83 97 84 96 94 79 88 90 87 90 96 90 95 92 86 89 95 76 70 77 74 72 73 58 56 56 54 55 53 55 54 62 62 61
59 83 90 92 98 99 95 97 94 93 96 99 98 89 95 82 86 90 92 92 94 94 89 90 97 92 86 82 74 70 66 58 57 60 66 60 60 58 53 53 57 62 66 66
89 91 88 95 93 93 90 93 95 91 97 96 89 93 97 93 96 94 90 96 93 87 85 91 89 94 86 86 86 78 77 75 70 64 63 61 60 62 61 62 60 62 63 64
73 76 76 83 87 91 94 89 90 97 94 98 97 98 98 99 97 95 96 97 89 85 94 84 82 75 80 73 64 57 64 65 66 61 64 62 62 61 64 68 68 66 61 59
66 65 82 78 88 97 100 99 85 98 100 97 98 96 95 97 96 99 97 98 95 92 96 93 86 85 78 73 70 63 59 61 61 60 58 58 60 56 61 67 58 57 61 54
80 73 54 72 94 96 93 92 92 91 95 99 95 98 96 85 98 97 98 93 95 96 99 95 94 87 75 78 70 75 63 62 65 64 60 64 65 64 55 53 52 60 67 55
87 82 65 96 79 97 88 93 98 99 98 96 93 94 85 94 95 92 96 95 94 88 89 92 97 92 88 77 76 72 74 67 65 56 62 62 60 66 65 51 50 56 62 66
96 97 86 91 95 97 94 95 100 97 98 96 91 95 92 91 94 90 95 96 96 87 96 91 94 93 89 83 82 76 65 61 61 61 62 63 65 67 62 57 59 56 59 64
100 90 90 96 97 93 97 97 92 90 84 81 93 84 70 88 100 100 93 94 88 88 93 95 88 84 81 76 67 54 51 56 60 66 64 62 58 61 66 76 60 58 61 63
Wind_Speed
29 28 27 26 25 16 4 2 3 8 7 4 2 2 4 3 2 4 2 3 3 2 2 3 2 1 2 5 2 3 1 5 3 1 2 3 2 3 4 4 5 1 3 6
28 28 28 28 24 14 3 2 1 4 3 4 2 1 3 2 1 1 1 2 1 1 3 2 1 1 3 5 3 3 3 1 3 6 4 4 3 4 3 4 2 6 5 6
26 28 28 28 25 11 2 3 3 4 4 1 6 3 1 1 2 0 1 3 2 3 2 4 4 2 1 2 2 4 2 2 4 6 4 4 4 5 5 5 3 4 6 6
23 26 27 28 27 10 4 3 0 2 1 3 4 3 3 2 1 2 3 1 2 4 3 2 3 3 1 2 2 2 3 1 2 4 6 3 4 4 8 9 6 7 3 8
20 24 26 27 27 10 5 3 3 3 2 2 2 1 5 6 2 3 2 2 3 1 3 5 7 5 4 3 1 3 1 1 1 4 3 5 7 9 10 12 8 11 13 21
18 20 23 25 26 11 6 4 2 3 3 1 2 2 3 6 6 2 1 1 2 1 2 3 2 2 2 2 6 4 4 3 2 4 4 6 7 10 14 6 5 9 11 10
14 17 19 20 21 19 6 4 2 3 1 1 2 1 1 2 2 2 1 3 3 1 2 3 4 6 5 6 4 2 4 4 2 3 4 2 4 3 5 10 4 9 5 4
12 13 16 17 17 14 13 6 2 3 0 1 1 3 2 2 3 3 2 4 2 1 4 3 3 4 4 1 3 1 1 4 1 1 2 7 0 2 4 5 2 4 5 2
11 11 12 13 13 12 7 12 5 3 4 3 1 2 3 3 1 2 2 2 2 5 2 2 4 4 4 2 1 4 3 3 3 2 2 5 3 1 1 1 1 0 4 1
10 10 9 10 11 10 7 6 9 2 2 3 2 2 3 5 2 2 1 2 2 3 2 1 3 4 4 3 5 4 3 0 5 4 3 7 7 5 1 4 5 2 2 1
11 9 8 6 7 8 6 3 7 3 1 4 1 1 3 1 2 4 3 3 2 2 3 3 3 3 4 2 5 6 6 6 4 4 3 7 5 2 1 2 2 2 1 1
13 11 9 7 4 5 5 1 3 5 1 3 2 2 2 1 1 4 2 3 4 4 2 2 2 2 1 1 3 1 4 5 5 8 6 3 1 1 3 3 2 1 2 2
15 12 10 8 6 4 3 1 3 1 2 3 1 3 3 3 3 3 3 3 3 3 3 4 2 3 4 3 4 2 4 4 3 1 1 3 4 2 3 2 1 3 4 4
19 14 11 8 5 5 4 1 1 0 4 1 3 1 1 1 0 4 6 1 2 5 1 2 3 2 3 3 2 2 2 4 3 4 3 5 4 4 4 5 4 5 5 3
17 13 10 8 5 4 4 4 3 4 1 2 3 6 1 2 3 3 4 5 2 1 1 1 3 2 2 1 2 3 4 5 4 4 1 2 3 4 1 3 4 4 4 5
12 8 6 5 4 2 2 2 4 6 5 1 3 1 1 2 3 4 3 4 2 1 3 3 2 3 3 3 3 3 2 2 3 2 1 1 4 5 3 2 2 5 4 2
13 10 7 3 3 4 2 2 4 7 5 0 4 4 1 0 1 2 2 2 0 2 2 3 2 2 3 2 4 3 4 3 3 3 1 3 4 1 3 2 4 4 5 7
7 6 6 7 7 6 3 2 7 11 4 1 2 3 3 2 1 0 0 1 2 1 1 1 2 1 1 4 3 3 4 5 4 5 5 3 3 1 3 5 4 5 6 8
5 5 6 7 2 3 2 5 5 6 3 2 3 2 2 1 1 1 1 1 1 0 2 2 2 2 4 2 3 3 2 3 3 2 4 4 3 4 5 4 5 5 7 9
6 8 3 2 2 4 6 2 2 0 1 1 2 2 2 0 1 1 2 1 1 2 3 2 2 3 0 1 3 5 5 5 5 3 2 2 4 4 5 4 6 7 10 14
4 2 2 4 4 2 0 2 2 2 2 2 2 3 2 0 2 2 1 2 2 2 2 2 2 3 2 3 2 2 3 3 5 4 5 6 6 6 6 8 10 13 15 14
6 7 5 3 2 2 2 2 0 3 2 1 1 2 1 1 1 2 1 2 1 4 1 2 3 2 3 4 2 0 3 5 7 7 9 11 12 12 12 13 15 18 20 23
6 3 3 3 3 2 6 6 3 2 2 2 2 2 1 1 0 1 1 2 3 2 1 3 3 3 4 5 2 4 5 6 8 11 12 13 15 17 16 17 22 22 23 26
3 3 2 4 2 4 4 4 3 3 3 3 2 2 2 1 1 1 1 1 2 1 2 4 2 5 6 4 2 2 5 8 9 12 16 16 17 19 23 24 26 24 22 27
2 4 3 4 3 1 1 1 1 1 2 3 2 2 1 1 2 1 2 3 3 3 4 2 3 5 4 5 5 6 7 9 11 18 15 19 22 20 22 29 28 26 26 26
3 2 1 2 2 1 2 3 2 2 3 1 2 2 3 1 1 2 4 3 5 3 3 4 3 5 6 7 6 12 17 18 20 22 22 22 21 21 23 28 28 30 29 26
2 3 2 2 1 4 3 3 3 5 3 2 3 3 6 1 2 2 3 5 4 4 3 2 5 7 8 10 14 18 20 19 21 21 23 24 27 25 22 17 29 27 27 28
Wind_Direction
2 4 2 4 2 2 8 60 42 352 6 47 27 80 134 167 7 9 42 95 89 77 74 78 81 94 1 338 354 57 16 122 122 140 298 191 159 168 143 124 213 149 144 274
3 3 4 1 359 5 357 69 263 355 29 99 37 357 60 77 115 54 61 91 20 106 111 94 87 97 350 4 48 137 179 21 56 352 358 355 217 198 146 117 95 199 140 261
3 4 4 4 360 1 48 78 23 341 45 99 119 123 93 30 12 27 124 141 126 109 103 31 155 148 353 15 83 76 77 122 165 187 200 139 199 199 180 144 138 185 226 274
5 4 6 8 3 9 345 33 309 186 24 348 100 106 137 125 230 354 351 21 199 158 132 117 152 183 147 50 22 65 95 176 197 251 245 216 221 194 186 201 187 191 227 227
6 7 7 11 11 7 60 100 117 16 64 347 75 32 200 168 175 166 258 247 187 186 156 185 194 149 199 195 90 125 32 191 60 287 347 234 257 233 215 216 228 252 267 283
1 10 11 13 18 30 70 32 67 96 333 55 93 239 196 209 146 190 246 184 102 98 179 84 38 83 99 151 154 160 135 130 88 269 347 315 289 235 209 182 195 207 228 245
359 7 13 18 23 32 50 48 58 76 276 76 228 228 135 160 255 191 161 101 124 118 63 77 51 36 74 79 38 109 132 120 126 280 352 261 250 296 191 204 204 215 270 256
350 5 13 17 22 28 47 36 70 106 74 213 320 114 88 34 55 65 20 8 346 90 69 59 22 348 357 48 19 68 162 132 135 210 237 291 314 146 141 169 26 190 215 248
336 347 5 11 20 21 30 33 36 100 109 268 326 142 163 168 235 346 117 104 43 31 60 117 195 227 213 247 324 27 62 73 131 140 203 236 226 183 133 94 322 183 143 88
314 323 343 2 11 19 33 36 27 3 106 256 154 199 183 137 121 132 328 166 84 74 76 272 207 236 166 192 181 173 130 130 199 210 272 286 248 250 162 124 209 97 89 15
290 296 312 336 2 4 20 38 23 37 141 279 223 219 156 126 138 157 192 77 335 59 155 177 248 240 233 152 164 175 170 152 189 165 228 278 177 87 210 186 67 108 335 273
273 279 289 302 331 344 1 58 359 344 205 254 251 276 241 237 197 142 188 168 167 184 123 187 141 250 338 255 266 134 212 187 179 195 213 253 280 90 71 95 144 101 275 299
247 258 268 283 292 300 321 333 338 340 41 310 331 221 247 225 222 230 138 281 187 171 178 160 181 224 138 200 242 250 253 178 202 111 22 257 275 34 84 30 88 11 355 335
238 236 244 248 257 274 279 272 232 82 100 273 281 308 256 260 255 245 241 157 113 105 105 147 159 196 164 209 237 217 221 147 202 262 265 92 41 40 17 346 19 357 350 327
203 211 225 230 244 278 278 252 231 201 129 244 280 308 262 310 288 233 210 207 126 133 114 134 220 205 149 161 98 242 189 206 184 244 149 128 163 125 27 53 15 347 346 339
174 178 198 219 216 231 249 19 213 194 166 92 297 285 11 23 63 112 143 168 130 129 164 201 241 258 157 196 213 250 146 178 221 244 262 112 111 96 40 73 10 354 336 319
153 166 170 179 229 211 209 219 138 167 156 256 294 311 289 91 78 44 56 63 145 142 221 229 194 244 172 184 203 169 119 87 43 21 280 118 48 25 339 339 357 339 310 312
198 220 227 226 223 193 211 195 155 146 111 54 257 270 343 169 156 136 12 106 38 321 227 319 205 120 112 256 226 128 125 103 57 44 44 86 146 86 4 356 347 339 333 336
210 212 182 143 178 166 177 167 169 173 164 217 199 181 248 53 122 119 76 116 170 330 217 239 155 199 224 197 157 144 109 147 157 97 81 48 38 332 308 309 339 336 328 327
146 143 156 163 131 140 131 93 121 314 211 259 239 128 256 163 110 132 117 10 231 228 231 106 216 251 92 278 159 138 153 153 147 136 270 284 281 281 319 316 292 271 276 289
157 117 109 125 129 130 85 184 192 152 242 196 223 188 175 6 136 202 155 198 175 255 262 191 230 276 227 178 124 202 224 262 291 282 287 289 274 281 288 293 290 295 295 290
144 127 109 112 54 56 208 208 239 202 228 132 186 171 131 114 79 97 218 164 156 255 139 234 251 247 157 153 158 183 295 299 298 298 289 293 290 289 284 283 288 297 303 305
119 74 63 65 304 142 184 193 210 212 180 189 168 143 133 122 341 177 183 182 222 96 80 227 223 208 176 189 217 313 324 307 299 301 299 297 297 304 297 287 300 303 300 301
81 106 275 153 218 239 196 185 188 236 138 139 134 118 143 144 138 186 143 237 126 263 235 235 245 210 192 192 226 241 280 292 281 284 294 290 289 289 300 301 301 294 286 299
117 93 226 217 233 215 213 109 13 311 137 112 95 54 72 38 50 258 51 360 246 227 229 230 230 192 179 238 247 272 285 288 291 292 289 291 294 287 285 294 298 298 291 288
95 105 90 237 80 234 213 196 255 227 123 91 49 86 56 337 146 64 223 181 226 247 215 220 184 206 217 234 251 267 277 280 281 284 284 284 281 276 282 295 295 296 292 285
115 270 232 159 149 200 204 176 199 156 74 135 99 89 210 56 59 256 201 209 218 218 238 228 204 205 228 243 256 269 276 276 275 276 280 278 286 287 284 279 289 289 288 287